Location: Aula-Vintri
(58.3875°N, 22.4322°E)
Time: 01:54:59
(UTC+00:00)

COSMOS 2406 - Pass Details

Date: 13 October 2019
Orbit: 842 x 865 km, 71.0° (Epoch: 19 November)

Event Time Altitude Azimuth Distance (km) Brightness Sun altitude
Rises 16:15:04 0° 320° (NW) 3,461 6.9 -6.5°
Reaches altitude 10° 16:17:35 10° 324° (NW) 2,521 6.1 -6.8°
Maximum altitude 16:23:21 63° 46° (NE) 966 3.3 -7.6°
Drops below altitude 10° 16:29:04 10° 127° (SE) 2,503 5.2 -8.3°
Enters shadow 16:31:15 - 131° (SE) 3,323 5.8 -8.6°
